TimeMST,TemperatureF,Dew PointF,Humidity,Sea Level PressureIn,VisibilityMPH,Wind Direction,Wind SpeedMPH,Gust SpeedMPH,PrecipitationIn,Events,Conditions,WindDirDegrees,DateUTC
12:54 AM,27.0,10.9,51,29.91,10.0,NNE,5.8,-,N/A,,Clear,20,2012-12-14 07:54:00
1:54 AM,25.0,10.0,53,29.90,10.0,North,5.8,-,N/A,,Clear,360,2012-12-14 08:54:00
2:54 AM,26.1,10.9,53,29.89,10.0,North,6.9,-,N/A,,Clear,360,2012-12-14 09:54:00
3:54 AM,32.0,12.2,44,29.85,10.0,East,5.8,-,N/A,,Clear,90,2012-12-14 10:54:00
4:54 AM,30.2,14.0,51,29.81,10.0,NE,4.6,-,N/A,,Clear,50,2012-12-14 11:54:00
5:54 AM,32.0,14.0,48,29.86,10.0,NE,3.5,-,N/A,,Overcast,50,2012-12-14 12:54:00
6:54 AM,35.1,12.9,40,29.80,10.0,North,4.6,-,N/A,,Mostly Cloudy,10,2012-12-14 13:54:00
7:54 AM,37.0,12.9,37,29.78,10.0,NNW,3.5,-,N/A,,Mostly Cloudy,340,2012-12-14 14:54:00
8:25 AM,33.8,15.8,48,29.73,10.0,SE,11.5,-,N/A,,Mostly Cloudy,130,2012-12-14 15:25:00
8:54 AM,35.1,16.0,46,29.80,10.0,West,4.6,-,N/A,,Mostly Cloudy,280,2012-12-14 15:54:00
9:54 AM,36.0,14.0,41,29.78,10.0,East,9.2,-,N/A,,Mostly Cloudy,100,2012-12-14 16:54:00
10:54 AM,37.0,15.1,41,29.79,10.0,Variable,5.8,-,N/A,,Mostly Cloudy,0,2012-12-14 17:54:00
11:54 AM,36.0,28.9,76,29.72,10.0,SE,11.5,-,N/A,,Mostly Cloudy,130,2012-12-14 18:54:00
12:54 PM,39.0,30.9,73,29.63,10.0,Calm,Calm,-,N/A,,Mostly Cloudy,0,2012-12-14 19:54:00
1:54 PM,39.9,28.9,65,29.60,10.0,East,5.8,-,N/A,,Mostly Cloudy,100,2012-12-14 20:54:00
2:54 PM,41.0,28.4,61,29.52,10.0,East,3.5,-,N/A,,Scattered Clouds,90,2012-12-14 21:54:00
3:54 PM,37.9,28.9,70,29.55,10.0,SSE,11.5,-,N/A,,Scattered Clouds,160,2012-12-14 22:54:00
4:32 PM,37.4,32.0,81,29.52,10.0,SE,9.2,-,N/A,,Mostly Cloudy,140,2012-12-14 23:32:00
4:54 PM,36.0,30.9,82,29.57,10.0,SSE,3.5,-,N/A,,Mostly Cloudy,150,2012-12-14 23:54:00
5:54 PM,35.1,30.9,85,29.52,10.0,NNW,3.5,-,N/A,,Scattered Clouds,340,2012-12-15 00:54:00
6:54 PM,34.0,30.0,85,29.51,10.0,NNW,5.8,-,N/A,,Partly Cloudy,330,2012-12-15 01:54:00
7:54 PM,39.0,25.0,57,29.51,10.0,North,12.7,-,N/A,,Clear,350,2012-12-15 02:54:00
8:54 PM,39.0,23.0,53,29.55,10.0,North,10.4,-,N/A,,Clear,350,2012-12-15 03:54:00
9:54 PM,37.9,23.0,55,29.57,10.0,North,11.5,-,N/A,,Clear,350,2012-12-15 04:54:00
10:54 PM,39.0,21.0,49,29.59,10.0,NNW,13.8,-,N/A,,Clear,340,2012-12-15 05:54:00
11:54 PM,37.9,19.9,48,29.63,10.0,North,13.8,-,N/A,,Clear,350,2012-12-15 06:54:00